Date String (YYYY-MM-DD hh:mm:ss) UTC,Instrument flags,absolute air pressure of the measurement (hPa),sample flow rate (lpm),inlet stack bypass flow (lpm),air temperature of the measurement (°C),ambient temperature measured by the external sensor (°C),aerosol sample conditioner tube jacket temperature (°C),OPC LED temperature (°C),internal box temperature (°C),relative humidity of the measurement (%),span deviation,mass concentration of particles derived from Lorenz-Mie calculation of OPC scattering (μg/m³),mass concentration of particles derived from Lorenz-Mie calculation of OPC scattering (μg/m³),mass concentration of particles derived from Lorenz-Mie calculation of OPC scattering (μg/m³)
DateTimeUTC,F1_M11,P_M11,Q1_M11,Q2_M11,T1_M11,T2_M11,T3_M11,T4_M11,T5_M11,U1_M11,ZSPAN_M11,X0_M11,X2_M11,X1_M11
2023-12-12 08:00:00,SystemResetWarning,0833.9,5.01,000.00,022.6,021.6,000.0,030.9,023.9,22.5,0000.0,0008.77,0007.02,0006.81
2023-12-12 08:01:00,SystemResetWarning,0833.9,5.00,000.00,022.6,021.6,000.0,030.9,023.9,22.5,0000.0,0008.83,0007.03,0006.80
2023-12-12 08:02:00,SystemResetWarning,0833.8,5.00,000.00,022.6,021.6,000.0,030.9,023.9,22.5,0000.0,0008.81,0007.04,0006.82
2023-12-12 08:03:00,SystemResetWarning,0833.8,5.00,000.00,022.6,021.7,000.0,030.9,023.9,22.5,0000.0,0008.77,0007.05,0006.84
2023-12-12 08:04:00,SystemResetWarning,0833.9,4.99,000.00,022.6,021.7,000.0,030.9,023.9,22.5,0000.0,0008.77,0007.07,0006.86
2023-12-12 08:05:00,SystemResetWarning,0833.8,4.99,000.00,022.6,021.7,000.0,030.9,023.9,22.5,0000.0,0008.75,0007.06,0006.86
2023-12-12 08:06:00,SystemResetWarning,0833.8,5.01,000.00,022.6,021.7,000.0,030.9,024.0,22.4,0000.0,0008.72,0007.05,0006.85
2023-12-12 08:07:00,SystemResetWarning,0833.9,5.01,000.00,022.6,021.7,000.0,030.9,024.0,22.5,0000.0,0008.74,0007.03,0006.82
2023-12-12 08:08:00,SystemResetWarning,0833.9,5.01,000.00,022.6,021.7,000.0,030.9,024.0,22.5,0000.0,0008.75,0007.04,0006.82
2023-12-12 08:09:00,SystemResetWarning,0833.9,5.01,000.00,022.6,021.7,000.0,030.9,024.0,22.4,0000.0,0008.73,0007.03,0006.81
2023-12-12 08:10:00,SystemResetWarning,0833.8,4.99,000.00,022.6,021.7,000.0,030.9,024.0,22.4,0000.0,0008.65,0006.95,0006.75
2023-12-12 08:11:00,SystemResetWarning,0833.9,5.00,000.00,022.6,021.7,000.0,030.9,024.0,22.4,0000.0,0008.69,0006.94,0006.72
2023-12-12 08:12:00,SystemResetWarning,0833.9,4.99,000.00,022.6,021.7,000.0,030.9,024.0,22.4,0000.0,0008.66,0006.93,0006.71
2023-12-12 08:13:00,SystemResetWarning,0833.8,4.99,000.00,022.6,021.7,000.0,030.9,023.9,22.4,0000.0,0008.65,0006.92,0006.69
2023-12-12 08:14:00,SystemResetWarning,0833.9,4.99,000.00,022.6,021.7,000.0,030.9,023.9,22.4,0000.0,0008.69,0006.92,0006.67
2023-12-12 08:15:00,SystemResetWarning,0833.9,5.00,000.00,022.6,021.7,000.0,030.9,023.9,22.4,0000.0,0008.63,0006.87,0006.63
2023-12-12 08:16:00,SystemResetWarning,0833.8,5.00,000.00,022.6,021.7,000.0,030.9,023.9,22.4,0000.0,0008.62,0006.84,0006.61
2023-12-12 08:17:00,SystemResetWarning,0833.8,5.00,000.00,022.6,021.7,000.0,030.9,023.9,22.4,0000.0,0008.63,0006.82,0006.58
2023-12-12 08:18:00,SystemResetWarning,0833.8,5.00,000.00,022.6,021.7,000.0,030.9,023.9,22.4,0000.0,0008.62,0006.80,0006.56
2023-12-12 08:19:00,SystemResetWarning,0833.8,5.00,000.00,022.6,021.7,000.0,030.9,023.9,22.4,0000.0,0008.58,0006.76,0006.52
2023-12-12 08:20:00,SystemResetWarning,0833.9,5.00,000.00,022.6,021.7,000.0,030.9,023.9,22.4,0000.0,0008.55,0006.72,0006.48
2023-12-12 08:21:00,SystemResetWarning,0833.9,5.00,000.00,022.6,021.7,000.0,030.9,023.9,22.4,0000.0,0008.54,0006.72,0006.48
2023-12-12 08:22:00,SystemResetWarning,0833.9,5.00,000.00,022.6,021.7,000.0,030.9,023.9,22.4,0000.0,0008.51,0006.72,0006.48
2023-12-12 08:23:00,SystemResetWarning,0833.9,5.00,000.00,022.6,021.7,000.0,030.9,024.0,22.4,0000.0,0008.42,0006.65,0006.43
2023-12-12 08:24:00,SystemResetWarning,0833.9,5.00,000.00,022.6,021.7,000.0,030.9,024.0,22.4,0000.0,0008.40,0006.62,0006.40
2023-12-12 08:25:00,SystemResetWarning,0833.9,5.00,000.00,022.6,021.7,000.0,030.9,024.0,22.3,0000.0,0008.32,0006.54,0006.34
2023-12-12 08:26:00,SystemResetWarning,0833.8,4.99,000.00,022.6,021.7,000.0,030.9,024.0,22.3,0000.0,0008.26,0006.50,0006.30
2023-12-12 08:27:00,SystemResetWarning,0833.8,5.00,000.00,022.6,021.7,000.0,030.9,023.9,22.3,0000.0,0008.27,0006.48,0006.27
2023-12-12 08:28:00,SystemResetWarning,0833.9,4.99,000.00,022.6,021.7,000.0,030.9,024.0,22.2,0000.0,0008.22,0006.41,0006.20
2023-12-12 08:29:00,SystemResetWarning,0833.9,5.01,000.00,022.6,021.7,000.0,030.9,024.0,22.2,0000.0,0008.17,0006.35,0006.13
2023-12-12 08:30:00,SystemResetWarning,0833.9,5.01,000.00,022.6,021.7,000.0,030.9,024.0,22.2,0000.0,0008.20,0006.32,0006.08
2023-12-12 08:31:00,SystemResetWarning,0833.8,5.01,000.00,022.7,021.7,000.0,030.9,024.0,22.3,0000.0,0008.12,0006.25,0006.01
2023-12-12 08:32:00,SystemResetWarning,0833.8,4.99,000.00,022.7,021.7,000.0,030.9,024.0,22.2,0000.0,0008.03,0006.18,0005.95
2023-12-12 08:33:00,SystemResetWarning,0833.8,5.00,000.00,022.7,021.7,000.0,030.9,024.0,22.2,0000.0,0008.01,0006.15,0005.91
2023-12-12 08:34:00,SystemResetWarning,0833.9,5.00,000.00,022.7,021.7,000.0,030.9,024.0,22.2,0000.0,0007.96,0006.10,0005.88
2023-12-12 08:35:00,SystemResetWarning,0833.9,4.99,000.00,022.7,021.7,000.0,030.9,024.0,22.2,0000.0,0007.90,0006.04,0005.82
2023-12-12 08:36:00,SystemResetWarning,0833.9,5.00,000.00,022.7,021.7,000.0,030.9,024.0,22.2,0000.0,0007.89,0006.01,0005.78
2023-12-12 08:37:00,SystemResetWarning,0833.8,5.00,000.00,022.7,021.7,000.0,030.9,024.0,22.2,0000.0,0007.92,0006.03,0005.79
2023-12-12 08:38:00,SystemResetWarning,0834.0,5.00,000.00,022.6,021.7,000.0,030.9,023.9,22.2,0000.0,0007.88,0006.01,0005.78
2023-12-12 08:39:00,SystemResetWarning,0833.8,5.00,000.00,022.6,021.7,000.0,030.9,023.9,22.2,0000.0,0007.92,0006.05,0005.81
2023-12-12 08:40:00,SystemResetWarning,0833.8,5.00,000.00,022.6,021.7,000.0,030.9,023.9,22.3,0000.0,0007.93,0006.08,0005.85
2023-12-12 08:41:00,SystemResetWarning,0833.9,5.00,000.00,022.6,021.7,000.0,030.9,023.9,22.3,0000.0,0007.88,0006.10,0005.91
2023-12-12 08:42:00,SystemResetWarning,0833.9,5.00,000.00,022.6,021.7,000.0,030.9,023.9,22.3,0000.0,0007.95,0006.16,0005.97
2023-12-12 08:43:00,SystemResetWarning,0833.8,5.00,000.00,022.6,021.7,000.0,030.9,023.9,22.3,0000.0,0008.11,0006.18,0006.00
2023-12-12 08:44:00,SystemResetWarning,0833.9,5.00,000.00,022.6,021.6,000.0,030.9,023.9,22.3,0000.0,0008.19,0006.19,0006.01
2023-12-12 08:45:00,SystemResetWarning,0833.9,5.00,000.00,022.6,021.6,000.0,030.9,023.9,22.3,0000.0,0008.22,0006.20,0006.02
2023-12-12 08:46:00,SystemResetWarning,0833.9,5.00,000.00,022.6,021.6,000.0,030.9,023.9,22.3,0000.0,0008.20,0006.22,0006.06
2023-12-12 08:47:00,SystemResetWarning,0833.8,5.01,000.00,022.6,021.6,000.0,030.9,023.9,22.3,0000.0,0008.21,0006.26,0006.10
2023-12-12 08:48:00,SystemResetWarning,0834.0,5.00,000.00,022.6,021.6,000.0,030.9,023.9,22.3,0000.0,0008.26,0006.29,0006.11
2023-12-12 08:49:00,SystemResetWarning,0833.9,5.00,000.00,022.6,021.6,000.0,030.9,023.9,22.3,0000.0,0008.36,0006.31,0006.12
2023-12-12 08:50:00,SystemResetWarning,0833.9,5.00,000.00,022.6,021.6,000.0,030.9,023.9,22.2,0000.0,0008.33,0006.30,0006.11
2023-12-12 08:51:00,SystemResetWarning,0833.9,4.99,000.00,022.6,021.6,000.0,030.9,023.9,22.2,0000.0,0008.31,0006.29,0006.11
2023-12-12 08:52:00,SystemResetWarning,0833.9,4.99,000.00,022.6,021.6,000.0,030.9,023.9,22.3,0000.0,0008.34,0006.29,0006.10
2023-12-12 08:53:00,SystemResetWarning,0833.9,4.99,000.00,022.6,021.6,000.0,030.9,023.9,22.3,0000.0,0008.35,0006.29,0006.09
2023-12-12 08:54:00,SystemResetWarning,0833.9,5.01,000.00,022.6,021.6,000.0,030.9,023.9,22.3,0000.0,0008.29,0006.33,0006.10
2023-12-12 08:55:00,SystemResetWarning,0833.8,5.00,000.00,022.6,021.6,000.0,030.9,023.9,22.3,0000.0,0008.29,0006.35,0006.12
2023-12-12 08:56:00,SystemResetWarning,0833.8,5.00,000.00,022.6,021.6,000.0,030.9,023.9,22.3,0000.0,0008.29,0006.39,0006.15
2023-12-12 08:57:00,SystemResetWarning,0833.8,5.01,000.00,022.6,021.6,000.0,030.9,023.9,22.3,0000.0,0008.35,0006.42,0006.18
2023-12-12 08:58:00,SystemResetWarning,0834.0,5.00,000.00,022.6,021.6,000.0,030.9,023.8,22.3,0000.0,0008.37,0006.44,0006.18
2023-12-12 08:59:00,SystemResetWarning,0833.9,5.00,000.00,022.5,021.6,000.0,030.9,023.8,22.3,0000.0,0008.35,0006.43,0006.19
